Flag Weather past 2 weeks in Bardufoss, Norway

Now
27 °F

Sleet. Overcast.


Feels Like: 27 °F
Forecast: 20 / 33 °F
Wind: 1 mph from North

Location: Bardufoss

Current Time: Nov 28, 2014 at 11:10:29 AM

Latest Report: Nov 28, 2014 at 10:20 AM


Visibility: N/A

Pressure: 30.21 "Hg

Humidity: 100%

Dew point: 27 °F

Location of BardufossLocation

Historic Weather in Bardufoss — Graph

°F

Bardufoss temperature yesterday

Maximum temperature yesterday: 43 °F (at 5:50 PM)
Minimum temperature yesterday: 25 °F (at 5:20 AM)
Average temperature yesterday: 31 °F

Past Weeks' High & Low Weather Summary

 TemperatureHumidityPressure
High43 °F (Nov 18, 2:20 PM)100% (Nov 18, 4:50 AM)30.48 "Hg (Nov 18, 4:50 AM)
Low-2 °F (Nov 14, 6:20 AM)66% (Nov 26, 5:20 AM)29.77 "Hg (Nov 25, 8:20 AM)
Average23 °F89%30.18 "Hg
* Reported Nov 13 9:20 AM — Nov 28 9:50 AM, Bardufoss, Weather by CustomWeather, © 2014

Note: Actual official high and low records may vary slightly from our data, if they occured in-between our weather recording intervals... More about our weather records

Advertising

Bardufoss weather history for previous 24 hours

 ConditionsComfort  
Time TempWeatherWind HumidityBarometerVisibility
9:50 AM
Nov 28
27 °FSleet. Overcast.No wind100%30.21 "Hg1 mi
9:20 AM27 °FSleet. Overcast.1 mph100%30.21 "HgN/A
8:50 AM27 °FIce fog.1 mph100%30.18 "Hg1 mi
8:20 AM28 °FIce fog.1 mph100%30.18 "Hg1 mi
7:50 AM28 °FIce fog.2 mph100%30.18 "Hg1 mi
7:20 AM28 °FIce fog.1 mph100%30.18 "Hg1 mi
6:50 AM28 °FIce fog.1 mph93%30.15 "Hg1 mi
6:20 AM28 °FSleet. Light fog.2 mph93%30.15 "HgN/A
5:50 AM30 °FPassing clouds.1 mph93%30.15 "HgN/A
5:20 AM28 °FPassing clouds.1 mph100%30.15 "HgN/A
4:50 AM30 °FPassing clouds.1 mph93%30.12 "HgN/A
3:50 AM32 °FPassing clouds.3 mph93%30.12 "HgN/A
2:50 AM32 °FPassing clouds.3 mph100%30.09 "HgN/A
1:50 AM34 °FScattered showers. Passing clouds.1 mph93%30.09 "HgN/A
12:50 AM36 °FScattered showers. Passing clouds.1 mph93%30.07 "HgN/A
11:50 PM
Nov 27
36 °FScattered showers. Passing clouds.6 mph93%30.07 "HgN/A
10:50 PM36 °FScattered showers. Passing clouds.2 mph93%30.04 "HgN/A
9:50 PM37 °FPassing clouds.3 mph87%30.04 "HgN/A
8:50 PM39 °FPassing clouds.No wind81%30.01 "HgN/A
7:50 PM39 °FPassing clouds.7 mph81%29.98 "HgN/A
6:50 PM41 °FLight rain. Passing clouds.9 mph76%29.95 "HgN/A
6:20 PM41 °FLight rain. Passing clouds.6 mph70%29.95 "HgN/A
5:50 PM43 °FLight rain. Passing clouds.3 mph66%29.92 "HgN/A
5:20 PM39 °FPassing clouds.6 mph70%29.92 "HgN/A
4:50 PM37 °FPassing clouds.7 mph75%29.89 "HgN/A
4:20 PM34 °FPassing clouds.6 mph87%29.89 "HgN/A
3:50 PM32 °FPassing clouds.5 mph87%29.89 "HgN/A
3:20 PM30 °FPassing clouds.1 mph93%29.89 "HgN/A
2:50 PM30 °FPartly cloudy.1 mph93%29.89 "HgN/A
2:20 PM28 °FPartly cloudy.6 mph100%29.89 "HgN/A
1:50 PM28 °FPassing clouds.1 mph100%29.89 "HgN/A
1:20 PM28 °FPartly cloudy.2 mph100%29.89 "HgN/A
12:50 PM28 °FPartly cloudy.2 mph93%29.92 "HgN/A
12:20 PM27 °FPartly sunny.No wind100%29.92 "HgN/A
11:50 AM27 °FSunny.2 mph100%29.92 "Hg10 mi
11:20 AM27 °FSunny.1 mph93%29.95 "Hg10 mi
Weather by CustomWeather, © 2014

See weather overviewHow to use our weather pages